www.pogodaiklimat.ru

Погода и климат >> Архив погоды >> Россия >> Краснодарский край >> Джубга


ПОГОДА в Джубге

  • Прогноз погоды в Джубге
  • Монитор погоды в Джубге

АРХИВ ПОГОДЫ в Джубге

Время (UTC), дата Ветер
(напр.,м/с)
 
Видим.   Явления Облачность Т
(С)
Тd
(С)
f
(%)
Тe
(С)
Тes
(С)
Комфортность P
(гПа)
Po
(гПа)
Тmin
(С)
Tmax
(С)
R
(мм)
R24
(мм)
S
(см)
09 12.03 С 4
{10}
10 км 10/0
[Ac As]
+12.4 +4.7 59 +11 +13 1009.0 1006.5
12 12.03 ЮВ 2 10 км 10/0
[Ac As]
+13.5 +5.5 58 +13 +15 1008.5 1006.0
15 12.03 В 1 10 км 10/10 600 м
[Cb cap]
+12.0 +6.2 68 +12 +12 1009.5 1007.0 +16.4
18 12.03 ЮВ 1 10 км слаб. ливневой дождь 10/10 600 м
[Cb cap]
+10.2 +7.5 83 +10 +10 1010.6 1008.0
21 12.03 штиль 0 10 км слаб. ливневой дождь 10/10 600 м
[Cb cap]
+9.4 +7.6 89 +9 +9 1011.5 1008.9
00 13.03 Ю 1 10 км слаб. ливневой дождь 10/10 600 м
[Cb cap]
+9.3 +7.7 90 +9 +9 1011.1 1008.5
03 13.03 С 4 10 км слаб. ливневой дождь 10/10 600 м
[Cb cap]
+4.5 +2.6 87 0 0 1011.1 1008.5 +4.4 18
06 13.03 С 6-11
{11}
4000 м слаб. ливневой дождь 10/10 300 м
[Cb cap]
+3.4 +1.4 87 -2 -2 1011.6 1009.0 +3.4
09 13.03 С 5-10
{13}
10 км слаб. ливневой дождь 10/10 300 м
[Cb cap]
+2.5 +0.4 86 -3 -3 1012.5 1009.9
12 13.03 С 4
{12}
10 км слаб. ливневой дождь 10/10 600 м
[Cb cap]
+2.1 +0.5 89 -3 -3 1012.7 1010.0
15 13.03 С 4-12
{15}
10 км {ливн. осадки} 10/9 600 м
[Cb cap Ac As]
+2.6 -0.5 80 -2 -2 1014.1 1011.5 +4.5 29
18 13.03 С 4
{13}
10 км {ливн. осадки} 10/10 600 м
[Cb cap]
+3.0 +0.1 81 -2 -2 1015.3 1012.6
21 13.03 С 5-11
{14}
10 км 10/10 600 м
[Cb cap]
+3.1 +0.3 82 -2 -2 1015.3 1012.6
00 14.03 С 6-10
{12}
10 км 10/10 600 м
[Cb cap]
+3.5 +0.4 80 -2 -2 1015.3 1012.7
03 14.03 С 5
{12}
10 км 10/10 600 м
[Cb cap]
+3.8 +0.3 78 -1 -1 1015.6 1013.0 +2.6
06 14.03 С 5
{10}
10 км 10/8 600 м
[Cb cap Ac As]
+4.2 +0.1 75 -1 -0 1015.2 1012.6
09 14.03 С 6
{10}
10 км 6/3 600 м
[Cb cap Ci sp]
+7.5 +1.5 66 +4 +6 1013.7 1011.1
12 14.03 С 3
{10}
10 км 10/10 600 м
[Cb cap]
+6.9 +2.0 71 +4 +4 1013.1 1010.5
15 14.03 С 5
{10}
10 км 10/8 600 м
[Cb cap Ac As]
+6.0 +1.8 74 +2 +2 1011.7 1009.1 +8.8
18 14.03 С 3 10 км 4/3 600 м
[Cb cap Ci sp]
+6.0 +2.0 75 +3 +3 1010.6 1008.1
21 14.03 С 3 10 км ясно +4.7 +1.9 82 +1 +1 1009.8 1007.2
00 15.03 СЗ 1 10 км ясно +6.1 +3.7 85 +5 +5 1009.6 1007.0
03 15.03 штиль 0 10 км ясно +7.3 +4.7 84 +6 +6 1009.1 1006.5 +4.5
06 15.03 С 1 10 км 10/10 600 м
[Cb cap]
+8.1 +5.4 83 +7 +7 1008.6 1006.0
09 15.03 ЮЗ 1 10 км 10/8 600 м
[Cb cap As op]
+9.7 +5.9 77 +9 +10 1008.2 1005.7
12 15.03 ЮЗ 1 10 км 10/5 600 м
[Cb cap As op]
+9.5 +5.6 77 +9 +10 1007.9 1005.4
15 15.03 штиль 0 10 км слаб. ливневой дождь 10/10 600 м
[Cb cap]
+8.2 +5.0 80 +7 +7 1007.5 1005.0 +10.0 0.3
18 15.03 З 1 10 км {ливн. осадки} 10/10 600 м
[Cb cap]
+8.1 +5.3 82 +7 +7 1008.7 1006.2
21 15.03 ЮЗ 2 10 км 10/10 600 м
[Cb cap]
+7.8 +5.4 85 +6 +6 1009.3 1006.8
00 16.03 В 1 10 км 10/10 600 м
[Cb cap]
+6.3 +3.2 81 +5 +5 1009.1 1006.6
03 16.03 С 1 10 км 10/10 600 м
[Cb cap]
+5.7 +3.7 87 +5 +5 1008.7 1006.1 +5.6 0.0
06 16.03 С 3 10 км 10/10 600 м
[Cb cap]
+7.2 +4.1 81 +4 +4 1009.1 1006.5
09 16.03 С 3 10 км 10/10 600 м
[Cb cap As op]
+7.7 +3.4 74 +5 +5 1009.3 1006.7
12 16.03 З 2 10 км {ливн. осадки} 10/8 600 м
[Cb cap As op]
+9.7 +4.4 70 +8 +9 1009.6 1007.0
15 16.03 ЮЗ 1 10 км 8/8 600 м
[Cb cap]
+8.8 +4.5 74 +8 +8 1010.7 1008.2 +9.8 0.1
18 16.03 Ю 1 10 км 8/5 600 м
[Cb cap Cs]
+7.9 +3.1 72 +7 +7 1011.5 1009.0
21 16.03 Ю 3 10 км слаб. ливневой дождь 10/10 600 м
[Cb cap]
+6.9 +5.1 88 +4 +4 1010.8 1008.2
00 17.03 Ю 2 10 км {ливн. осадки} 10/10 600 м
[Cb cap]
+7.7 +4.8 82 +6 +6 1008.4 1005.8
03 17.03 Ю 2 10 км 10/10 600 м
[Cb cap]
+7.9 +4.3 78 +6 +6 1008.2 1005.7 +6.1 3
06 17.03 Ю 4
{12}
10 км слаб. ливневой дождь 10/10 600 м
[Cb cap]
+6.6 +3.8 82 +3 +3 1009.2 1006.6
09 17.03 Ю 1
{11}
10 км {ливн. осадки} 9/6 600 м
[Cb cap Ac As]
+9.4 +5.7 78 +9 +11 1008.8 1006.2
12 17.03 З 3
{13}
10 км {ливн. осадки} 10/8 600 м
[Cb cap Ac As]
+7.8 +3.2 73 +5 +6 1012.0 1009.4
15 17.03 З 1
{11}
10 км 8/4 600 м
[Cb cap Ac As]
+7.9 +2.3 68 +7 +7 1015.6 1013.0 +10.2 0.3
18 17.03 Ю 1 10 км 9/8 600 м
[Cb cap Ac As]
+7.8 +3.6 75 +7 +7 1018.2 1015.7
21 17.03 Ю 1 10 км слаб. ливневой дождь 10/10 600 м
[Cb cap]
+6.0 +3.4 83 +5 +5 1019.1 1016.5
00 18.03 штиль 0 10 км слаб. ливневой дождь 10/10 600 м
[Cb cap]
+4.3 +2.5 88 +3 +3 1020.2 1017.6
03 18.03 С 2 10 км {ливн. осадки} 4/1 600 м
[Cb cap Ac As]
+3.3 +1.9 91 0 0 1021.1 1018.5 +3.3 15
06 18.03 ЮВ 1 10 км {ливн. осадки} 10/10 600 м
[Cb cap]
+7.1 +5.3 88 +6 +6 1022.9 1020.3 +3.0
09 18.03 Ю 1 10 км 8/6 600 м
[Cb cap Ac As]
+9.8 +4.5 70 +10 +13 1023.4 1020.9
12 18.03 ЮЗ 2 10 км 8/4 600 м
[Cb cap Ac As]
+11.6 +5.2 65 +11 +13 1023.4 1020.8
15 18.03 штиль 0 10 км ясно +9.4 +3.2 65 +9 +9 1023.4 1020.8 +11.9
18 18.03 С 2 10 км ясно +5.1 +2.8 85 +3 +3 1023.6 1021.0
21 18.03 С 4 10 км ясно +6.9 +2.3 72 +4 +4 1023.0 1020.4
00 19.03 С 2 10 км ясно +6.3 +1.8 73 +4 +4 1023.6 1020.9
03 19.03 С 3 10 км ясно +2.7 +0.9 88 -1 -1 1023.9 1021.3 +2.4
06 19.03 С 2 10 км 6/4 600 м
[Cu med, cong Ac As Cc]
+6.8 +2.7 75 +5 +7 1024.3 1021.7 +1.9

 

Местоположение метеостанции Джубга (Краснодарский край, Россия): широта 44.33 долгота 38.72 высота над уровнем моря 23 м.

В архиве по умолчанию представлена погода в Джубге за последнюю неделю. Архивные данные за месяц целиком и за предыдущие месяцы, начиная с января 2011 года, Вы можете получить, выбрав интересующий диапазон дат из раскрывающегося списка и нажав кнопку "Ввод!".


*Определитесь, кто Вы:
робот инопланетянин человек

Внимание! Время в таблицах - всемирное. Для получения местного времени необходимо прибавить поправку, которая равна 3 ч.

Смотрите также архив погоды в соседних городах и на ближайших метеорологических станциях:

Погода в Туапсе (Краснодарский край, Россия) (38 км)
Погода в Горном (Краснодарский край, Россия) (44 км)
Погода в Горячем Ключе (Краснодарский край, Россия) (45 км)
Погода в Магри (Краснодарский край, Россия) (49 км)
Погода в Геленджике (Краснодарский край, Россия) (57 км)
Погода в Лазаревском (Краснодарский край, Россия) (68 км)
Погода в Новороссийске (Краснодарский край, Россия) (81 км)
Погода в Краснодаре (Краснодарский край, Россия) (84 км)
Погода в Кичмае (Краснодарский край, Россия) (84 км)
Погода в Крымске (Краснодарский край, Россия) (87 км)

Пояснения к столбцам:

Ветер - указаны скорость ветра в м/с - средняя за 10 мин, порывы в срок и между сроками (в фигурных скобках) и направление, откуда дует ветер: С - северный, СВ - северо-восточный, В - восточный, ЮВ - юго-восточный, Ю - южный, ЮЗ - юго-западный, З - западный, СЗ - северо-западный.
Видимость - горизонтальная дальность видимости в метрах или километрах. При видимости от 1 до 10 км при отсутствии осадков обычно наблюдается дымка, при ухудшении видимости до 1 км и менее - туман. В сухую погоду видимость может ухудшаться дымом, пылью или мглою.
Явления - указаны атмосферные явления, наблюдавшиеся в срок или в последний час перед сроком; фигурными скобками обозначены явления, наблюдавшиеся между сроками (за 1-3 часа до срока); квадратными скобками обозначены град или гололедные отложения с указанием их диаметра в мм.
Облачность - указаны через наклонную черту общая и нижняя облачность в баллах и высота нижней границы облаков в метрах; квадратными скобками обозначены формы облаков: Ci - перистые, Cs - перисто-слоистые, Cc - перисто-кучевые, Ac - высококучевые, As - высокослоистые, Sc - слоисто-кучевые, Ns - слоисто-дождевые, Cu - кучевые, Cb - кучево-дождевые. Подробнее классификацию облаков см. в Атласе облаков (PDF).
T - Температура воздуха - температура, измеренная на высоте 2 м над землей.
Td - Температура точки росы - температура, при понижении до которой содержащийся в воздухе водяной пар достигнет насыщения.
f - Относительная влажность воздуха - влажноcть воздуха, измеренная на высоте 2 м над землей.
Te - Эффективная температура - температура, которую ощущает одетый по сезону человек в тени. Характеристика душности погоды. При расчете учитывается влияние влажности воздуха и скорости ветра на теплоощущения человека.
Tes - Эффективная температура на солнце - температура, которую ощущает человек, с поправкой на солнечный нагрев. Характеристика знойности погоды. Зависит от высоты солнца над горизонтом, облачности и скорости ветра. Ночью, в пасмурную погоду, а также при ветре 12 м/с и более поправка равна нулю.
P - Атмосферное давление - приведенное к уровню моря атмосферное давление.
Po - Атмосферное давление - измеренное на уровне метеостанции атмосферное давление.
Tmin - Минимальная температура - минимум температуры воздуха на высоте 2 м над землей.
Tmax - Максимальная температура - максимум температуры воздуха на высоте 2 м над землей.
R - Количество осадков - Количество выпавших осадков за период времени, мм. При наведении курсора мыши на число - период времени, за который выпало указанное количество осадков.
R24 - Количество осадков - Количество выпавших осадков за 24 часа, мм.
S - Снежный покров - Высота снежного покрова, см. При наведении курсора мыши на число - состояние снежного покрова и степень покрытия местности в баллах.